Wind_Speed
8 2 8 8 8 8 7 5 7 2 6 3 3 4 2 7 12 9 13 19 12 22 27 34 34 28 25 22 20 21 18 14 19 24 19 18 20 17 14 12 11 10 6 9
5 7 13 9 6 4 5 6 4 8 8 4 5 5 6 11 14 22 11 11 14 17 27 38 34 32 30 26 22 24 21 20 16 20 17 21 19 15 18 18 15 10 8 5
8 11 4 8 10 7 5 5 7 5 9 5 11 5 6 6 9 20 24 25 22 20 30 35 36 35 33 29 27 25 25 23 19 20 20 18 16 14 21 23 21 14 11 8
7 15 11 12 7 8 6 11 9 16 10 6 10 4 6 4 5 12 28 39 28 30 26 32 36 37 35 33 30 26 24 25 21 20 21 25 21 17 19 25 21 17 11 10
11 6 6 7 11 8 9 8 15 16 9 7 8 2 6 1 7 14 22 34 34 32 31 35 36 37 37 35 34 27 27 26 25 22 23 26 28 19 17 19 21 17 12 12
10 14 6 8 7 7 5 2 5 3 4 1 9 8 4 5 13 5 17 23 25 33 32 40 38 37 38 39 36 30 30 28 25 24 26 31 30 24 18 20 21 21 17 15
7 8 7 7 4 5 3 7 3 5 4 5 6 5 8 9 12 12 17 26 30 26 32 33 41 42 37 38 40 34 28 31 29 25 27 34 31 28 25 23 25 23 23 22
3 9 5 3 9 9 6 9 6 4 4 4 7 4 6 8 15 24 11 18 27 24 26 33 46 45 41 39 38 42 30 32 29 28 29 35 35 30 28 30 25 29 28 21
6 6 4 12 7 11 5 3 7 7 3 3 3 4 7 4 3 13 14 12 23 25 25 34 43 44 40 41 36 42 34 31 33 34 32 34 37 34 32 32 30 25 24 24
6 4 4 5 4 1 9 6 2 3 4 5 4 3 5 5 8 6 6 16 22 23 26 30 38 36 41 42 37 43 38 31 33 33 30 30 37 36 35 34 33 27 24 24
7 5 11 3 5 9 0 3 3 5 5 6 4 6 6 12 9 11 12 23 14 18 27 32 35 33 34 40 40 38 41 33 33 35 32 30 33 37 38 37 38 33 29 29
12 7 7 11 5 7 7 10 7 5 5 2 5 5 6 13 17 19 15 21 25 17 18 25 32 32 32 38 42 43 32 34 32 33 36 32 30 35 37 40 40 39 35 31
8 2 1 8 7 5 4 2 4 5 3 2 4 5 5 6 4 15 10 18 22 26 24 22 18 13 23 34 37 41 37 40 34 34 36 35 32 32 34 34 38 41 36 35
2 5 7 8 8 4 3 5 6 7 4 3 4 5 9 9 10 10 16 23 32 25 21 18 18 16 17 24 30 37 36 33 34 38 37 35 34 32 28 30 32 35 41 36
1 7 6 7 7 5 5 4 7 4 6 5 4 7 12 18 17 26 34 35 28 24 20 17 13 8 7 12 18 21 26 32 36 39 40 35 32 30 28 31 28 25 31 36
5 2 3 5 7 8 5 1 3 7 8 6 3 2 2 3 24 24 30 33 31 26 20 13 8 8 7 9 12 15 19 20 21 29 32 32 34 35 31 31 29 30 27 25
3 3 2 3 2 4 1 8 6 5 5 6 4 7 4 6 15 27 32 35 31 26 20 15 9 5 4 5 4 4 8 14 18 19 26 29 34 35 33 33 32 31 26 26
1 2 2 3 3 3 8 6 7 7 4 6 3 5 10 24 36 35 36 36 31 27 23 19 14 11 12 9 7 5 3 2 3 6 11 15 23 27 29 26 27 35 35 31
5 4 1 3 3 5 1 1 6 7 7 6 6 4 2 11 16 14 33 35 33 29 27 23 17 17 14 11 11 12 11 9 7 6 4 4 8 12 14 20 24 29 29 31
4 4 4 2 2 3 7 4 12 5 3 5 1 2 1 19 10 11 37 40 35 31 29 26 23 19 14 12 11 11 13 12 12 11 10 7 2 5 8 14 20 11 19 15
3 2 4 4 3 6 8 9 6 7 7 10 19 17 13 13 17 31 39 38 35 33 31 27 22 16 14 11 10 7 4 4 5 4 4 5 4 4 4 5 17 18 11 9
4 2 4 2 4 6 17 6 1 10 16 14 12 9 29 30 20 33 40 39 38 35 31 25 20 17 14 10 9 8 6 3 3 1 1 1 0 2 3 4 2 4 17 12
2 4 2 4 3 2 7 6 12 22 23 26 12 24 36 31 34 41 40 38 36 33 29 24 20 18 14 12 10 9 5 5 5 3 3 5 5 5 3 4 3 3 5 7
2 3 1 4 3 1 11 5 12 18 28 25 9 28 37 38 41 40 39 37 34 29 25 24 23 18 15 13 12 11 9 8 8 6 4 7 5 3 2 3 4 3 6 5
5 1 2 4 8 8 3 11 14 17 27 26 10 15 33 41 42 41 39 35 29 27 25 22 20 16 13 9 7 12 11 6 5 6 6 10 8 6 4 4 6 6 8 8
7 6 4 5 9 5 13 16 16 19 24 30 27 12 18 41 40 38 34 31 29 27 24 21 18 16 11 8 5 9 11 8 9 10 9 10 9 6 4 2 1 3 4 5
Wind_Direction
262 96 232 239 206 217 237 149 177 99 147 138 155 91 149 186 177 239 262 201 202 195 186 182 186 186 190 187 188 185 182 181 182 186 193 206 192 190 189 189 190 191 204 178
354 240 240 247 253 250 174 135 162 111 158 104 92 273 236 205 175 195 246 241 248 206 200 191 191 191 191 198 200 194 198 192 195 198 173 167 179 203 205 195 197 212 189 193
198 241 209 224 253 220 223 168 177 117 136 131 159 292 280 238 166 184 221 224 239 215 187 189 193 192 193 199 201 206 203 202 201 200 189 193 205 197 192 205 211 215 200 181
224 256 253 270 251 164 183 209 176 153 142 204 204 231 273 225 263 199 198 215 227 211 201 187 194 193 199 201 203 209 216 209 207 204 210 203 208 201 194 205 215 205 209 216
248 258 222 237 233 157 219 194 197 183 188 109 215 308 265 98 240 225 214 211 214 216 202 196 196 201 203 206 208 211 213 214 214 216 214 207 200 208 214 208 210 215 224 222
233 270 195 224 251 185 220 38 58 62 145 11 198 197 288 214 240 181 220 218 213 210 209 203 200 204 205 206 209 209 208 217 222 221 211 205 202 206 212 217 217 217 217 218
325 288 286 204 259 3 116 66 357 2 16 223 239 137 224 224 246 226 204 212 215 205 208 212 202 202 207 211 208 212 216 216 221 223 219 212 211 212 215 214 220 225 224 219
211 316 176 240 187 194 184 152 152 190 186 215 238 180 256 202 221 230 213 215 215 202 195 207 206 208 218 219 216 217 226 218 224 222 223 217 218 216 217 219 224 226 226 232
173 259 266 236 170 145 218 167 184 105 0 72 255 321 334 7 190 221 171 213 212 206 198 207 206 214 221 224 225 221 227 230 230 223 221 221 220 219 221 220 226 224 225 229
222 291 237 324 90 121 154 174 77 16 138 226 280 252 225 244 238 248 241 213 198 201 206 207 207 215 223 231 236 228 231 230 222 217 220 223 223 226 224 222 225 223 218 228
174 152 276 140 168 200 151 214 86 132 145 171 192 256 213 208 173 196 219 240 246 211 213 217 220 229 235 237 238 228 226 231 222 222 223 225 226 228 228 226 225 228 225 227
200 168 218 228 232 210 187 200 148 128 258 178 158 275 188 194 192 187 198 225 239 246 202 223 232 238 242 238 240 232 232 235 230 234 230 226 228 229 228 227 224 227 226 224
167 218 146 341 349 11 171 149 115 127 103 240 167 232 176 190 174 189 202 223 231 175 154 150 167 204 218 229 228 227 235 233 239 235 224 227 226 231 230 231 228 225 228 228
178 131 162 194 206 173 170 167 127 111 97 259 165 316 178 190 213 186 171 189 174 162 162 156 145 140 178 207 220 230 237 238 240 238 225 229 228 230 231 231 230 230 228 232
79 185 169 197 220 178 209 208 145 131 168 135 252 175 220 181 182 171 156 154 156 163 170 172 171 159 175 195 207 210 224 234 236 240 234 232 240 236 236 239 230 231 229 235
346 279 188 199 180 191 220 204 132 147 133 151 147 202 51 283 152 152 158 158 166 171 173 177 192 248 239 240 241 239 236 235 237 235 236 234 234 239 231 231 234 233 231 238
41 26 48 268 56 115 42 194 194 204 165 159 126 211 178 173 188 169 170 172 175 176 181 178 188 203 187 161 189 238 234 235 236 228 233 227 230 233 230 242 233 228 239 232
346 48 92 217 45 274 236 237 203 194 120 145 158 259 165 193 195 179 178 175 179 186 185 183 185 174 147 127 115 113 147 204 226 226 233 228 231 239 243 235 237 229 237 247
157 127 21 140 178 278 325 172 149 160 235 183 204 306 110 152 175 179 183 182 187 193 199 192 183 168 152 130 112 100 95 92 97 105 111 150 212 235 243 240 233 227 229 239
94 121 138 138 123 212 238 238 164 120 261 161 223 328 276 142 171 206 186 185 189 197 195 185 177 169 162 147 132 117 102 90 85 83 78 71 67 243 236 233 190 219 222 287
350 339 193 175 186 278 340 276 168 124 231 169 169 208 215 186 199 196 185 188 194 193 186 183 177 172 167 159 155 136 102 105 99 91 73 64 78 91 65 215 230 236 232 251
194 183 223 177 160 236 357 356 161 325 296 190 174 189 181 193 176 178 183 186 187 183 177 178 174 173 170 163 160 169 192 207 155 150 293 195 161 100 62 61 69 229 221 260
149 183 224 182 193 139 52 62 0 18 4 322 242 198 182 176 169 176 177 179 180 177 175 178 178 169 174 185 184 182 213 218 206 234 245 208 214 229 185 143 140 150 165 182
264 195 236 360 89 177 312 298 350 356 356 347 337 172 173 159 164 166 167 169 172 175 176 174 176 180 179 179 184 193 192 221 232 251 217 197 201 191 155 143 170 165 174 182
216 69 195 266 292 324 148 345 306 329 345 354 351 212 177 168 166 165 165 165 170 175 175 181 183 180 182 190 198 196 193 218 203 173 142 148 149 129 99 74 91 105 136 142
195 200 173 230 261 236 284 306 303 276 330 344 339 282 193 172 168 169 165 166 165 170 174 176 179 180 186 205 222 211 209 215 169 151 148 126 126 151 150 138 91 86 102 118
Height
1503 1511 1519 1512 1511 1508 1508 1517 1520 1519 1519 1522 1524 1526 1525 1526 1531 1533 1533 1529 1532 1533 1536 1538 1540 1541 1544 1548 1550 1554 1556 1558 1561 1563 1566 1568 1570 1571 1572 1572 1574 1576 1579 1581
1508 1515 1499 1500 1502 1503 1507 1514 1517 1518 1518 1520 1527 1528 1517 1514 1516 1520 1528 1529 1529 1530 1533 1536 1537 1539 1542 1544 1547 1550 1553 1556 1559 1563 1565 1568 1570 1571 1573 1574 1576 1579 1579 1579
1510 1497 1492 1496 1500 1506 1509 1511 1513 1515 1520 1520 1524 1528 1523 1511 1512 1515 1521 1527 1526 1528 1532 1533 1535 1536 1540 1543 1543 1547 1550 1554 1557 1561 1566 1568 1570 1571 1573 1575 1578 1579 1580 1581
1502 1486 1490 1492 1497 1497 1514 1492 1497 1507 1516 1534 1518 1539 1526 1516 1515 1515 1511 1506 1516 1520 1527 1530 1530 1533 1535 1538 1543 1546 1547 1551 1555 1559 1563 1566 1569 1570 1571 1573 1576 1579 1581 1582
1497 1487 1489 1493 1488 1484 1495 1483 1490 1497 1507 1518 1528 1538 1517 1509 1511 1507 1505 1509 1513 1518 1519 1523 1525 1528 1532 1536 1539 1542 1546 1549 1552 1556 1559 1563 1566 1570 1571 1574 1576 1577 1578 1579
1487 1478 1479 1478 1472 1473 1473 1480 1491 1497 1510 1529 1516 1523 1523 1516 1493 1498 1500 1503 1507 1511 1515 1520 1522 1524 1528 1531 1534 1538 1542 1546 1549 1553 1556 1559 1563 1567 1569 1571 1574 1576 1576 1578
1487 1480 1472 1471 1476 1473 1476 1502 1535 1535 1537 1535 1509 1512 1509 1490 1488 1486 1492 1494 1500 1504 1511 1516 1519 1521 1524 1526 1529 1535 1538 1541 1545 1548 1552 1555 1559 1562 1566 1568 1571 1574 1575 1576
1504 1505 1471 1463 1470 1480 1484 1498 1532 1536 1545 1525 1503 1518 1503 1479 1478 1479 1488 1492 1497 1502 1506 1510 1514 1517 1520 1522 1526 1530 1533 1535 1539 1543 1547 1551 1555 1558 1562 1565 1568 1570 1572 1573
1503 1494 1461 1459 1457 1466 1481 1496 1486 1521 1522 1531 1515 1500 1485 1475 1478 1477 1484 1490 1493 1497 1502 1506 1511 1514 1516 1517 1522 1525 1528 1532 1534 1538 1541 1544 1549 1553 1556 1560 1563 1566 1568 1570
1472 1491 1460 1455 1455 1460 1469 1470 1498 1518 1536 1537 1520 1508 1507 1487 1483 1478 1478 1485 1489 1493 1498 1502 1506 1509 1512 1513 1517 1521 1524 1527 1529 1533 1536 1539 1544 1548 1553 1556 1559 1562 1564 1567
1461 1476 1469 1460 1466 1472 1474 1480 1484 1495 1510 1527 1531 1515 1477 1474 1474 1474 1478 1480 1489 1490 1494 1497 1501 1505 1506 1508 1512 1515 1520 1523 1526 1530 1532 1535 1539 1543 1548 1552 1554 1557 1560 1563
1451 1471 1484 1470 1451 1450 1456 1465 1478 1507 1500 1500 1509 1501 1465 1467 1467 1470 1476 1481 1485 1489 1491 1494 1497 1501 1501 1503 1506 1511 1515 1517 1522 1526 1528 1531 1534 1538 1541 1544 1547 1551 1553 1555
1445 1468 1487 1479 1464 1452 1456 1458 1467 1478 1489 1493 1499 1495 1468 1467 1469 1472 1475 1480 1487 1489 1490 1491 1493 1496 1496 1500 1503 1506 1509 1511 1515 1518 1523 1527 1529 1531 1534 1538 1541 1544 1547 1549
1436 1457 1468 1486 1473 1460 1462 1457 1463 1476 1499 1493 1492 1485 1477 1470 1471 1472 1473 1479 1486 1484 1486 1489 1493 1495 1497 1499 1501 1502 1505 1507 1509 1514 1518 1519 1521 1523 1526 1531 1535 1539 1541 1544
1442 1454 1455 1455 1452 1451 1452 1454 1459 1467 1477 1488 1473 1476 1471 1457 1460 1464 1471 1477 1479 1483 1485 1488 1492 1495 1497 1499 1499 1500 1501 1501 1505 1507 1511 1515 1518 1517 1519 1526 1528 1532 1535 1539
1444 1450 1446 1448 1447 1448 1452 1446 1448 1455 1467 1471 1467 1467 1465 1464 1462 1466 1468 1472 1476 1479 1481 1485 1489 1492 1493 1493 1493 1494 1496 1498 1498 1500 1504 1511 1512 1513 1514 1517 1519 1525 1527 1530
1452 1455 1460 1465 1450 1453 1467 1452 1447 1446 1452 1457 1466 1459 1458 1466 1464 1460 1463 1466 1470 1476 1478 1483 1488 1491 1491 1491 1492 1493 1493 1493 1494 1496 1497 1502 1505 1506 1510 1513 1514 1517 1516 1522
1450 1455 1463 1468 1456 1478 1452 1435 1435 1441 1444 1447 1448 1447 1449 1450 1451 1455 1460 1466 1471 1475 1477 1483 1488 1490 1492 1493 1493 1492 1491 1491 1491 1491 1492 1496 1499 1502 1503 1504 1504 1502 1513 1514
1444 1454 1463 1469 1477 1459 1440 1436 1440 1444 1448 1440 1444 1437 1442 1448 1460 1461 1461 1463 1467 1471 1475 1480 1486 1490 1492 1492 1492 1492 1491 1491 1490 1490 1489 1491 1492 1494 1495 1497 1498 1503 1509 1510
1442 1446 1457 1470 1469 1474 1450 1432 1430 1433 1457 1436 1434 1431 1437 1446 1467 1454 1456 1460 1465 1469 1474 1480 1484 1488 1490 1491 1492 1492 1492 1492 1491 1491 1491 1490 1491 1491 1493 1495 1497 1501 1505 1505
1455 1454 1457 1465 1469 1458 1446 1435 1432 1456 1457 1428 1432 1434 1436 1443 1440 1442 1454 1460 1462 1467 1473 1479 1483 1484 1488 1490 1491 1491 1491 1492 1492 1492 1492 1492 1492 1492 1493 1494 1496 1497 1499 1499
1456 1461 1461 1456 1461 1468 1442 1435 1446 1447 1431 1425 1422 1425 1430 1436 1438 1444 1451 1455 1460 1464 1471 1477 1480 1483 1486 1489 1490 1490 1491 1492 1492 1492 1492 1492 1491 1491 1492 1492 1493 1494 1496 1498
1458 1458 1460 1457 1456 1447 1442 1448 1451 1445 1442 1435 1423 1419 1423 1429 1435 1439 1447 1454 1459 1464 1468 1475 1478 1481 1484 1487 1488 1489 1490 1491 1491 1491 1492 1491 1492 1492 1494 1495 1495 1497 1497 1497
1454 1453 1456 1454 1447 1447 1443 1441 1444 1444 1439 1435 1427 1422 1420 1425 1430 1438 1444 1453 1459 1464 1468 1473 1477 1480 1483 1486 1487 1488 1490 1490 1490 1490 1489 1490 1491 1491 1492 1493 1494 1495 1496 1496
1453 1451 1453 1454 1444 1440 1438 1438 1439 1439 1435 1428 1427 1433 1423 1425 1433 1435 1445 1451 1457 1463 1467 1471 1476 1480 1482 1484 1485 1486 1488 1488 1489 1489 1489 1489 1491 1491 1491 1491 1492 1494 1495 1496
1447 1448 1453 1452 1442 1442 1440 1437 1435 1435 1433 1431 1433 1433 1435 1425 1430 1438 1445 1451 1456 1460 1464 1469 1473 1478 1481 1483 1484 1485 1486 1487 1488 1489 1490 1491 1492 1492 1493 1493 1493 1494 1495 1496